This demonstration page uses our WeatherBlox Daily Observations layout. Learn more.

Left ArrowRight Arrow

39.92423, -83.80882

Hourly Observations for September 29, 2015

Temp ( °F °C ) Dew Point ( °F °C ) Humidity (%) Winds ( mph kmh ) Pressure ( in mb ) Visibility ( mi km ) Precip ( " mm )
12:56 am 00:56 Partly Cloudy 71 21.6 67 19.4 87 87 SSE 6 9 30 1016 10 16.0934 0 0
1:56 am 01:56 Mostly Cloudy 71 21.6 68 20 91 91 SSE 6 9 29.99 1016 10 16.0934 0 0.0254
2:56 am 02:56 Clear 69 20.5 68 20 97 97 ESE 3 6 29.97 1015 10 16.0934 0 0
3:56 am 03:56 Mostly Clear 68 20 68 20 100 100 E 3 6 29.96 1014 10 16.0934 0 0
4:12 am 04:12 Partly Cloudy with Light Rain 68 20 68 20 100 100 Calm 29.94 1014 9 14.48406 0.01 0.254
4:56 am 04:56 Clear 67 19.4 67 19.4 100 100 Calm 29.94 1014 10 16.0934 0.01 0.254
5:56 am 05:56 Partly Cloudy 67 19.4 67 19.4 100 100 E 3 6 29.94 1014 10 16.0934 0 0
6:56 am 06:56 Mostly Clear 67 19.4 67 19.4 100 100 E 3 6 29.94 1014 9 14.48406 0 0.0254
7:56 am 07:56 Partly Cloudy 67 19.4 67 19.4 100 100 Calm 29.95 1014 8 12.87472 0 0
8:35 am 08:35 Sunny with Mist and Fog 66 19 66 19 100 100 NE 3 6 29.94 1014 2 3.21868 0 0
8:46 am 08:46 Sunny with Mist and Fog 66 19 66 19 100 100 NNE 5 7 29.94 1014 5 8.0467 0 0
8:56 am 08:56 Sunny with Light Rain 68 20 68 20 100 100 N 3 6 29.95 1014 8 12.87472 0 0.0254
9:56 am 09:56 Cloudy 69 20.5 69 20.5 100 100 E 3 6 29.95 1014 9 14.48406 0.01 0.254
10:29 am 10:29 Mostly Cloudy 70 21 70 21 100 100 ENE 3 6 29.94 1014 8 12.87472 0 0
10:56 am 10:56 Mostly Cloudy 70 21.1 70 21.1 100 100 Calm 29.95 1014 8 12.87472 0 0
11:25 am 11:25 Mostly Cloudy with Light Rain 72 22 72 22 100 100 Calm 29.94 1014 4 6.43736 0 0.0254
11:56 am 11:56 Mostly Cloudy with Mist and Fog 71 21.6 71 21.6 100 100 ENE 3 6 29.95 1014 6 9.65604 0.01 0.254
12:56 pm 12:56 Mostly Cloudy with Light Rain 71 21.6 69 20.5 93 93 Calm 29.94 1014 10 16.0934 0.01 0.254
1:03 pm 13:03 Mostly Cloudy 72 22 70 21 94 94 NNE 3 6 29.94 1014 9 14.48406 0 0.0254
1:25 pm 13:25 Mostly Cloudy with Light Rain 72 22 70 21 94 94 Calm 29.91 1013 5 8.0467 0.02 0.508
1:46 pm 13:46 Cloudy with Light Rain 70 21 68 20 94 94 N 9 15 29.91 1013 2.5 4.02335 0.04 1.016
1:56 pm 13:56 Cloudy with Light Rain 69 20.5 68 20 97 97 N 6 9 29.92 1013 2.5 4.02335 0.06 1.524
2:04 pm 14:04 Cloudy with Light Rain 70 21 70 21 100 100 N 6 9 29.91 1013 4 6.43736 0.01 0.254
2:12 pm 14:12 Mostly Cloudy with Light Rain 70 21 70 21 100 100 N 6 9 29.91 1013 5 8.0467 0.01 0.254
2:43 pm 14:43 Cloudy with Light Rain 70 21 68 20 94 94 N 7 11 29.91 1013 5 8.0467 0.04 1.016
2:56 pm 14:56 Cloudy with Light Rain 69 20.5 68 20 97 97 N 6 9 29.91 1013 6 9.65604 0.04 1.016
3:56 pm 15:56 Cloudy with Mist and Fog 69 20.5 69 20.5 100 100 N 6 9 29.89 1012 4 6.43736 0.04 1.016
4:56 pm 16:56 Cloudy 69 20.5 69 20.5 100 100 N 7 11 29.88 1012 10 16.0934 0.01 0.254
5:56 pm 17:56 Mostly Cloudy 69 20.5 69 20.5 100 100 N 6 9 29.88 1012 10 16.0934 0 0
6:56 pm 18:56 Mostly Cloudy 68 20 67 19.4 96 96 N 8 13 29.88 1012 7 11.26538 0.01 0.254
7:56 pm 19:56 Mostly Clear 67 19.4 67 19.4 100 100 N 10 17 29.88 1012 9 14.48406 0.02 0.508
8:15 pm 20:15 Mostly Cloudy with Light Rain 66 19 66 19 100 100 N 9 15 29.88 1012 7 11.26538 0 0.0254
8:39 pm 20:39 Mostly Cloudy 66 19 66 19 100 100 NNE 10 17 29.88 1012 9 14.48406 0.01 0.254
8:56 pm 20:56 Partly Cloudy 66 18.8 66 18.8 100 100 NNE 8 13 29.89 1012 7 11.26538 0.01 0.254
9:09 pm 21:09 Mostly Cloudy 66 19 66 19 100 100 NNE 9 15 29.88 1012 7 11.26538 0 0
9:56 pm 21:56 Cloudy with Mist and Fog 67 19.4 67 19.4 100 100 NNE 8 13 29.9 1012 4 6.43736 0 0
10:08 pm 22:08 Cloudy with Mist and Fog 66 19 66 19 100 100 NNE 9 15 29.88 1012 5 8.0467 0 0
10:45 pm 22:45 Mostly Cloudy 66 19 64 18 94 94 N 17 28 29.88 1012 10 16.0934 0 0
10:56 pm 22:56 Cloudy 66 18.8 65 18.3 97 97 NNE 16 26 29.91 1013 10 16.0934 0 0
11:22 pm 23:22 Cloudy 64 18 63 17 94 94 N 18 30 29.91 1013 10 16.0934 0 0
11:56 pm 23:56 Cloudy 62 16.6 60 15.5 93 93 NNE 18 30 29.93 1014 10 16.0934 0 0

Powered by AerisWeather